When you browse on this site, cookies collect data to enhance your experience and personalize the content and advertising you see.
Visit our Privacy Policy to learn more. By continuing to use the site, you agree to this use of cookies and data.
  • In Hungary
  • List of Countries
  • For 7 days
  • Water Temperature
  • Weather Map
  • News
  • Weather Widgets
  • user-avatar
    Login

    Hourly Weather Rozwadow

    Today, 18 February, Tuesday

    Time Temperature Precipitation Wind Pressure Humidity
    00:00 +8°C° 0.7 mm 3 mps 748 mmHg 87%
    01:00 +7°C° 0.7 mm 3 mps 748 mmHg 90%
    02:00 +7°C° 0 mm 3 mps 748 mmHg 92%
    03:00 +7°C° 0.3 mm 3 mps 748 mmHg 92%
    04:00 +7°C° 0.3 mm 3 mps 748 mmHg 92%
    05:00 +6°C° 0.3 mm 2 mps 748 mmHg 91%
    06:00 +5°C° 0 mm 3 mps 748 mmHg 90%
    07:00 +5°C° 0 mm 3 mps 748 mmHg 89%
    08:00 +5°C° 0 mm 4 mps 748 mmHg 88%
    09:00 +5°C° 0 mm 5 mps 748 mmHg 83%
    10:00 +5°C° 0 mm 6 mps 749 mmHg 78%
    11:00 +6°C° 0 mm 7 mps 749 mmHg 73%
    12:00 +6°C° 0.1 mm 7 mps 749 mmHg 70%
    13:00 +6°C° 0.1 mm 8 mps 749 mmHg 67%
    14:00 +6°C° 0.1 mm 8 mps 749 mmHg 63%
    15:00 +6°C° 0.1 mm 8 mps 749 mmHg 65%
    16:00 +6°C° 0.1 mm 7 mps 749 mmHg 66%
    17:00 +5°C° 0.1 mm 6 mps 749 mmHg 68%
    18:00 +5°C° 0 mm 7 mps 749 mmHg 68%
    19:00 +4°C° 0 mm 7 mps 750 mmHg 68%
    20:00 +4°C° 0 mm 7 mps 750 mmHg 68%
    21:00 +3°C° 0 mm 6 mps 750 mmHg 70%
    22:00 +3°C° 0 mm 6 mps 750 mmHg 73%
    23:00 +2°C° 0 mm 5 mps 751 mmHg 75%

    Tomorrow, 19 February, Wednesday

    Time Temperature Precipitation Wind Pressure Humidity
    00:00 +2°C° 0 mm 5 mps 751 mmHg 76%
    01:00 +1°C° 0 mm 5 mps 751 mmHg 77%
    02:00 +1°C° 0 mm 5 mps 751 mmHg 78%
    03:00 +1°C° 0 mm 5 mps 751 mmHg 79%
    04:00 +1°C° 0 mm 5 mps 750 mmHg 80%
    05:00 0°C° 0 mm 5 mps 750 mmHg 81%
    06:00 0°C° 0 mm 5 mps 750 mmHg 83%
    07:00 0°C° 0 mm 5 mps 750 mmHg 84%
    08:00 0°C° 0 mm 4 mps 750 mmHg 85%
    09:00 0°C° 0 mm 5 mps 750 mmHg 82%
    10:00 +1°C° 0 mm 5 mps 749 mmHg 78%
    11:00 +2°C° 0 mm 5 mps 749 mmHg 74%
    12:00 +3°C° 0 mm 5 mps 749 mmHg 71%
    13:00 +3°C° 0 mm 5 mps 749 mmHg 68%
    14:00 +5°C° 0 mm 5 mps 748 mmHg 65%
    15:00 +5°C° 0 mm 5 mps 748 mmHg 65%
    16:00 +5°C° 0 mm 4 mps 748 mmHg 65%
    17:00 +5°C° 0 mm 4 mps 747 mmHg 65%
    18:00 +4°C° 0 mm 4 mps 747 mmHg 68%
    19:00 +4°C° 0 mm 3 mps 747 mmHg 71%
    20:00 +3°C° 0 mm 3 mps 747 mmHg 74%
    21:00 +3°C° 0 mm 3 mps 747 mmHg 77%
    22:00 +3°C° 0 mm 3 mps 747 mmHg 80%
    23:00 +3°C° 0 mm 3 mps 747 mmHg 83%

    Day after tomorrow, 20 February, Thursday

    Time Temperature Precipitation Wind Pressure Humidity
    00:00 +3°C° 0.1 mm 4 mps 747 mmHg 85%
    01:00 +3°C° 0.1 mm 4 mps 748 mmHg 87%
    02:00 +3°C° 0.1 mm 4 mps 748 mmHg 89%
    03:00 +1°C° 0.1 mm 4 mps 748 mmHg 88%
    04:00 +1°C° 0.1 mm 4 mps 748 mmHg 86%
    05:00 0°C° 0.1 mm 4 mps 748 mmHg 84%
    06:00 0°C° 0 mm 4 mps 749 mmHg 85%
    07:00 0°C° 0 mm 4 mps 749 mmHg 85%
    08:00 0°C° 0 mm 4 mps 750 mmHg 85%
    09:00 +1°C° 0 mm 5 mps 750 mmHg 82%
    10:00 +1°C° 0 mm 5 mps 751 mmHg 78%
    11:00 +2°C° 0 mm 5 mps 751 mmHg 74%
    12:00 +2°C° 0 mm 5 mps 751 mmHg 72%
    13:00 +3°C° 0 mm 4 mps 752 mmHg 70%
    14:00 +3°C° 0 mm 4 mps 752 mmHg 68%
    15:00 +3°C° 0 mm 4 mps 752 mmHg 68%
    16:00 +3°C° 0 mm 3 mps 752 mmHg 69%
    17:00 +3°C° 0 mm 3 mps 752 mmHg 69%
    18:00 +4°C° 0 mm 2 mps 752 mmHg 70%
    19:00 +4°C° 0 mm 2 mps 752 mmHg 70%
    20:00 +3°C° 0 mm 2 mps 753 mmHg 71%
    21:00 +3°C° 0 mm 2 mps 752 mmHg 72%
    22:00 +1°C° 0 mm 3 mps 752 mmHg 73%
    23:00 +1°C° 0 mm 3 mps 752 mmHg 74%

    21 February, Friday

    Time Temperature Precipitation Wind Pressure Humidity
    00:00 +1°C° 0 mm 3 mps 752 mmHg 75%
    01:00 -1°C° 0 mm 4 mps 752 mmHg 77%
    02:00 -1°C° 0 mm 4 mps 751 mmHg 79%
    03:00 -1°C° 0 mm 5 mps 751 mmHg 78%
    04:00 -1°C° 0 mm 5 mps 750 mmHg 77%
    05:00 -2°C° 0 mm 6 mps 750 mmHg 76%
    06:00 -2°C° 0 mm 6 mps 749 mmHg 77%
    07:00 -2°C° 0 mm 6 mps 749 mmHg 77%
    08:00 -2°C° 0 mm 7 mps 749 mmHg 78%
    15:00 +2°C° 0.2 mm 7 mps 749 mmHg 86%
    16:00 +2°C° 0.2 mm 6 mps 749 mmHg 78%
    17:00 +2°C° 0.2 mm 6 mps 750 mmHg 70%
    18:00 +1°C° 0 mm 5 mps 751 mmHg 72%
    19:00 +1°C° 0 mm 5 mps 752 mmHg 73%
    20:00 0°C° 0 mm 5 mps 753 mmHg 75%
    21:00 0°C° 0 mm 5 mps 753 mmHg 80%
    22:00 0°C° 0 mm 5 mps 753 mmHg 84%
    23:00 0°C° 0 mm 5 mps 754 mmHg 88%

    22 February, Saturday

    Time Temperature Precipitation Wind Pressure Humidity
    00:00 -1°C° 0 mm 5 mps 754 mmHg 88%
    01:00 -1°C° 0 mm 5 mps 755 mmHg 88%
    02:00 -1°C° 0 mm 5 mps 755 mmHg 88%
    03:00 -1°C° 0 mm 5 mps 755 mmHg 89%
    04:00 -1°C° 0 mm 4 mps 755 mmHg 90%
    05:00 -2°C° 0 mm 4 mps 755 mmHg 91%
    06:00 -2°C° 0 mm 4 mps 755 mmHg 91%
    07:00 -2°C° 0 mm 4 mps 755 mmHg 90%
    08:00 -2°C° 0 mm 4 mps 755 mmHg 90%
    09:00 -1°C° 0 mm 5 mps 755 mmHg 84%
    10:00 -1°C° 0 mm 6 mps 755 mmHg 78%
    11:00 +2°C° 0 mm 7 mps 755 mmHg 73%
    12:00 +2°C° 0 mm 7 mps 754 mmHg 71%
    13:00 +2°C° 0 mm 7 mps 754 mmHg 70%
    14:00 +3°C° 0 mm 7 mps 754 mmHg 69%
    15:00 +3°C° 0 mm 7 mps 753 mmHg 68%
    16:00 +3°C° 0 mm 7 mps 752 mmHg 67%
    17:00 +3°C° 0 mm 7 mps 752 mmHg 66%
    18:00 +2°C° 0 mm 8 mps 751 mmHg 69%
    19:00 +2°C° 0 mm 8 mps 751 mmHg 73%
    20:00 +2°C° 0 mm 9 mps 750 mmHg 76%
    21:00 +2°C° 0.3 mm 9 mps 749 mmHg 79%
    22:00 +2°C° 0.3 mm 9 mps 749 mmHg 82%
    23:00 +2°C° 0.3 mm 9 mps 748 mmHg 85%

    23 February, Sunday

    Time Temperature Precipitation Wind Pressure Humidity
    00:00 +2°C° 0.5 mm 9 mps 747 mmHg 85%
    01:00 +2°C° 0.5 mm 9 mps 747 mmHg 85%
    02:00 +3°C° 0.5 mm 10 mps 746 mmHg 85%
    03:00 +3°C° 0.1 mm 10 mps 745 mmHg 84%
    04:00 +3°C° 0.1 mm 10 mps 745 mmHg 83%
    05:00 +5°C° 0.1 mm 10 mps 744 mmHg 83%
    06:00 +5°C° 0.9 mm 9 mps 744 mmHg 85%
    07:00 +5°C° 0.9 mm 9 mps 743 mmHg 87%
    08:00 +4°C° 0.9 mm 8 mps 743 mmHg 89%
    09:00 +3°C° 0.8 mm 9 mps 743 mmHg 84%
    10:00 +3°C° 0.8 mm 10 mps 743 mmHg 79%
    11:00 +3°C° 0.8 mm 10 mps 743 mmHg 74%
    12:00 +3°C° 0.1 mm 10 mps 744 mmHg 71%
    13:00 +3°C° 0.1 mm 10 mps 744 mmHg 69%
    14:00 +3°C° 0.1 mm 9 mps 744 mmHg 66%
    15:00 +3°C° 0 mm 9 mps 744 mmHg 69%
    16:00 +2°C° 0 mm 9 mps 744 mmHg 72%
    17:00 +2°C° 0 mm 8 mps 744 mmHg 76%
    18:00 +2°C° 0 mm 8 mps 744 mmHg 76%
    19:00 +2°C° 0 mm 7 mps 745 mmHg 76%
    20:00 +2°C° 0 mm 6 mps 745 mmHg 76%
    21:00 +2°C° 0 mm 6 mps 744 mmHg 78%
    22:00 +2°C° 0 mm 6 mps 744 mmHg 81%
    23:00 +2°C° 0 mm 6 mps 744 mmHg 83%
    Show more